| time (UTC) | temp C | wind direction | speed KPH | gust KPH | rain 1hr cm | rain 24hr cm | rain mn cm | humidity % | barometer mb |
| 20260509034528 | 9 | 0 | 0.0 | 1.6 | 0.00 | 0.05 | 0.05 | 84 | 1011.6 |
| 20260509033030 | 9 | 0 | 0.0 | 0.0 | 0.00 | 0.05 | 0.05 | 83 | 1011.3 |
| 20260509031531 | 9 | 0 | 0.0 | 3.2 | 0.00 | 0.05 | 0.05 | 83 | 1011.3 |
| 20260509030028 | 10 | 0 | 0.0 | 0.0 | 0.00 | 0.05 | 0.05 | 82 | 1011.4 |
| 20260509024528 | 10 | 0 | 0.0 | 3.2 | 0.00 | 0.05 | 0.05 | 81 | 1011.7 |
| 20260509023027 | 10 | 0 | 0.0 | 3.2 | 0.00 | 0.05 | 0.05 | 78 | 1011.6 |
| 20260509021528 | 11 | 0 | 0.0 | 3.2 | 0.00 | 0.05 | 0.05 | 76 | 1011.5 |
| 20260509020033 | 11 | 258 | 0.0 | 6.4 | 0.00 | 0.05 | 0.05 | 74 | 1011.2 |
| 20260509014528 | 11 | 0 | 0.0 | 12.9 | 0.00 | 0.05 | 0.05 | 72 | 1011.5 |
| 20260509013029 | 12 | 52 | 3.2 | 12.9 | 0.00 | 0.05 | 0.05 | 67 | 1011.6 |
| 20260509011531 | 12 | 49 | 4.8 | 9.7 | 0.00 | 0.05 | 0.05 | 66 | 1011.1 |
| 20260509010045 | 12 | 41 | 3.2 | 11.3 | 0.00 | 0.05 | 0.05 | 65 | 1010.8 |
| 20260509004529 | 12 | 46 | 1.6 | 9.7 | 0.00 | 0.05 | 0.05 | 65 | 1010.8 |
| 20260509003028 | 12 | 53 | 3.2 | 14.5 | 0.00 | 0.05 | 0.05 | 65 | 1010.7 |
| 20260509001531 | 12 | 89 | 6.4 | 14.5 | 0.00 | 0.05 | 0.05 | 65 | 1010.8 |
| 20260509000030 | 12 | 28 | 8.0 | 30.6 | 0.00 | 0.05 | 0.05 | 64 | 1010.7 |
| 20260508234529 | 12 | 45 | 6.4 | 17.7 | 0.00 | 0.05 | 0.05 | 66 | 1010.7 |
| 20260508233030 | 12 | 56 | 11.3 | 24.1 | 0.00 | 0.05 | 0.05 | 65 | 1010.6 |
| 20260508231529 | 12 | 46 | 11.3 | 30.6 | 0.00 | 0.05 | 0.05 | 65 | 1010.4 |
| 20260508230038 | 12 | 41 | 16.1 | 32.2 | 0.00 | 0.05 | 0.05 | 66 | 1010.0 |
| 20260508224536 | 12 | 70 | 11.3 | 22.5 | 0.00 | 0.05 | 0.05 | 68 | 1009.9 |
| 20260508223031 | 12 | 36 | 8.0 | 16.1 | 0.00 | 0.05 | 0.05 | 71 | 1010.0 |
| 20260508221541 | 12 | 10 | 4.8 | 11.3 | 0.00 | 0.05 | 0.05 | 73 | 1010.3 |
| 20260508220030 | 11 | 22 | 4.8 | 14.5 | 0.00 | 0.05 | 0.05 | 75 | 1010.5 |
| 20260508214530 | 11 | 80 | 4.8 | 11.3 | 0.00 | 0.05 | 0.05 | 73 | 1010.5 |
| 20260508213028 | 11 | 55 | 3.2 | 11.3 | 0.03 | 0.05 | 0.05 | 76 | 1010.3 |
| 20260508211530 | 10 | 13 | 4.8 | 14.5 | 0.03 | 0.05 | 0.05 | 77 | 1010.5 |
| 20260508210030 | 10 | 11 | 4.8 | 17.7 | 0.03 | 0.05 | 0.05 | 78 | 1010.7 |
| 20260508204529 | 11 | 53 | 12.9 | 38.6 | 0.03 | 0.05 | 0.05 | 72 | 1011.0 |
| 20260508203027 | 13 | 75 | 11.3 | 22.5 | 0.00 | 0.03 | 0.03 | 60 | 1010.4 |
| 20260508201528 | 13 | 30 | 1.6 | 6.4 | 0.00 | 0.03 | 0.03 | 62 | 1009.9 |
| 20260508200031 | 13 | 28 | 3.2 | 8.0 | 0.00 | 0.03 | 0.03 | 63 | 1010.3 |
| 20260508194529 | 13 | 355 | 3.2 | 6.4 | 0.00 | 0.03 | 0.03 | 61 | 1010.3 |
| 20260508193028 | 13 | 19 | 6.4 | 11.3 | 0.00 | 0.03 | 0.03 | 61 | 1010.5 |
| 20260508191530 | 13 | 45 | 3.2 | 8.0 | 0.00 | 0.03 | 0.03 | 57 | 1010.3 |
| 20260508190031 | 13 | 167 | 1.6 | 8.0 | 0.00 | 0.03 | 0.03 | 65 | 1010.4 |
| 20260508184534 | 12 | 136 | 8.0 | 24.1 | 0.00 | 0.03 | 0.03 | 64 | 1010.7 |
| 20260508183029 | 13 | 101 | 4.8 | 22.5 | 0.00 | 0.03 | 0.03 | 57 | 1010.7 |
| 20260508181528 | 13 | 33 | 8.0 | 19.3 | 0.03 | 0.03 | 0.03 | 56 | 1010.6 |
| 20260508180030 | 13 | 62 | 12.9 | 20.9 | 0.03 | 0.03 | 0.03 | 58 | 1010.9 |
| 20260508174536 | 13 | 166 | 9.7 | 17.7 | 0.03 | 0.03 | 0.03 | 63 | 1011.1 |
| 20260508173029 | 11 | 81 | 9.7 | 29.0 | 0.03 | 0.03 | 0.03 | 66 | 1011.1 |
| 20260508171531 | 13 | 55 | 14.5 | 25.7 | 0.00 | 0.00 | 0.00 | 51 | 1011.3 |
| 20260508170028 | 13 | 65 | 8.0 | 22.5 | 0.00 | 0.00 | 0.00 | 51 | 1011.0 |
| 20260508164534 | 13 | 54 | 9.7 | 30.6 | 0.00 | 0.00 | 0.00 | 52 | 1011.2 |
| 20260508163027 | 13 | 76 | 14.5 | 29.0 | 0.00 | 0.00 | 0.00 | 50 | 1011.2 |
| 20260508161526 | 13 | 53 | 14.5 | 37.0 | 0.00 | 0.00 | 0.00 | 51 | 1011.2 |
| 20260508160033 | 13 | 54 | 14.5 | 25.7 | 0.00 | 0.00 | 0.00 | 51 | 1011.3 |
| 20260508154531 | 14 | 59 | 16.1 | 38.6 | 0.00 | 0.00 | 0.00 | 55 | 1011.3 |
| 20260508153028 | 13 | 20 | 19.3 | 37.0 | 0.00 | 0.00 | 0.00 | 51 | 1011.3 |
| 20260508151531 | 13 | 51 | 20.9 | 49.9 | 0.00 | 0.00 | 0.00 | 51 | 1011.1 |
| 20260508150034 | 13 | 13 | 22.5 | 33.8 | 0.00 | 0.00 | 0.00 | 51 | 1010.9 |
| 20260508144529 | 12 | 12 | 17.7 | 35.4 | 0.00 | 0.00 | 0.00 | 53 | 1011.2 |
| 20260508143028 | 11 | 59 | 14.5 | 30.6 | 0.00 | 0.00 | 0.00 | 55 | 1011.3 |
| 20260508141528 | 11 | 32 | 12.9 | 24.1 | 0.00 | 0.00 | 0.00 | 56 | 1011.5 |
| 20260508140029 | 11 | 11 | 12.9 | 25.7 | 0.00 | 0.00 | 0.00 | 56 | 1011.8 |
| 20260508134528 | 10 | 352 | 17.7 | 27.4 | 0.00 | 0.00 | 0.00 | 56 | 1011.7 |
| 20260508133029 | 10 | 22 | 12.9 | 22.5 | 0.00 | 0.00 | 0.00 | 58 | 1011.8 |
| 20260508131529 | 9 | 5 | 11.3 | 24.1 | 0.00 | 0.00 | 0.00 | 58 | 1012.1 |
| 20260508130027 | 8 | 335 | 8.0 | 20.9 | 0.00 | 0.00 | 0.00 | 60 | 1012.1 |
| 20260508124530 | 7 | 40 | 3.2 | 8.0 | 0.00 | 0.00 | 0.00 | 69 | 1012.2 |
| 20260508123030 | 5 | 0 | 0.0 | 0.0 | 0.00 | 0.00 | 0.00 | 77 | 1012.2 |
| 20260508121530 | 5 | 0 | 0.0 | 0.0 | 0.00 | 0.00 | 0.00 | 79 | 1012.2 |
| 20260508120028 | 5 | 0 | 0.0 | 1.6 | 0.00 | 0.00 | 0.00 | 78 | 1012.3 |
| 20260508114530 | 4 | 0 | 0.0 | 0.0 | 0.00 | 0.00 | 0.00 | 83 | 1012.4 |
| 20260508113028 | 3 | 0 | 0.0 | 1.6 | 0.00 | 0.00 | 0.00 | 83 | 1012.4 |
| 20260508111529 | 2 | 0 | 0.0 | 0.0 | 0.00 | 0.00 | 0.00 | 86 | 1012.3 |
| 20260508110027 | 1 | 0 | 0.0 | 3.2 | 0.00 | 0.00 | 0.00 | 89 | 1012.2 |
| 20260508104541 | 1 | 107 | 0.0 | 3.2 | 0.00 | 0.00 | 0.00 | 88 | 1012.0 |
| 20260508103035 | 1 | 0 | 0.0 | 3.2 | 0.00 | 0.00 | 0.00 | 87 | 1011.9 |
| 20260508101528 | 1 | 0 | 0.0 | 3.2 | 0.00 | 0.00 | 0.00 | 86 | 1011.8 |
| 20260508100027 | 1 | 0 | 0.0 | 1.6 | 0.00 | 0.00 | 0.00 | 86 | 1011.7 |
| 20260508094527 | 1 | 0 | 0.0 | 3.2 | 0.00 | 0.00 | 0.00 | 85 | 1011.6 |
| 20260508093029 | 1 | 0 | 0.0 | 0.0 | 0.00 | 0.00 | 0.00 | 85 | 1011.5 |
| 20260508091528 | 1 | 0 | 0.0 | 0.0 | 0.00 | 0.00 | 0.00 | 85 | 1011.5 |
| 20260508090030 | 2 | 0 | 0.0 | 0.0 | 0.00 | 0.00 | 0.00 | 85 | 1011.5 |
| 20260508084530 | 2 | 0 | 0.0 | 0.0 | 0.00 | 0.00 | 0.00 | 84 | 1011.6 |
| 20260508083031 | 2 | 0 | 0.0 | 1.6 | 0.00 | 0.00 | 0.00 | 84 | 1011.5 |
| 20260508081530 | 2 | 0 | 0.0 | 1.6 | 0.00 | 0.00 | 0.00 | 85 | 1011.5 |
| 20260508080027 | 2 | 0 | 0.0 | 0.0 | 0.00 | 0.00 | 0.00 | 86 | 1011.6 |
| 20260508074526 | 2 | 0 | 0.0 | 0.0 | 0.00 | 0.00 | 0.00 | 86 | 1011.4 |
| 20260508073028 | 2 | 0 | 0.0 | 0.0 | 0.00 | 0.00 | 0.00 | 87 | 1011.4 |
| 20260508071528 | 2 | 0 | 0.0 | 1.6 | 0.00 | 0.00 | 0.00 | 87 | 1011.6 |
| 20260508070041 | 2 | 107 | 0.0 | 3.2 | 0.00 | 0.00 | 0.00 | 87 | 1011.7 |
| 20260508064533 | 3 | 0 | 0.0 | 0.0 | 0.00 | 0.00 | 0.00 | 88 | 1011.7 |
| 20260508063030 | 3 | 0 | 0.0 | 0.0 | 0.00 | 0.00 | 0.00 | 88 | 1011.7 |
| 20260508061528 | 3 | 0 | 0.0 | 0.0 | 0.00 | 0.00 | 0.00 | 88 | 1011.7 |
| 20260508060027 | 3 | 0 | 0.0 | 0.0 | 0.00 | 0.00 | 0.00 | 86 | 1011.8 |
| 20260508054528 | 3 | 0 | 0.0 | 0.0 | 0.00 | 0.00 | 0.00 | 85 | 1011.8 |
| 20260508053030 | 3 | 0 | 0.0 | 0.0 | 0.00 | 0.00 | 0.00 | 86 | 1011.9 |
| 20260508051527 | 4 | 0 | 0.0 | 0.0 | 0.00 | 0.00 | 0.00 | 86 | 1012.0 |
| 20260508050027 | 4 | 0 | 0.0 | 0.0 | 0.00 | 0.00 | 0.00 | 84 | 1012.0 |
| 20260508044528 | 5 | 0 | 0.0 | 0.0 | 0.00 | 0.00 | 0.00 | 82 | 1011.9 |
| 20260508043048 | 5 | 0 | 0.0 | 0.0 | 0.00 | 0.00 | 0.00 | 80 | 1011.9 |
| 20260508041530 | 5 | 0 | 0.0 | 0.0 | 0.00 | 0.00 | 0.00 | 80 | 1011.7 |
| 20260508040031 | 6 | 0 | 0.0 | 0.0 | 0.00 | 0.00 | 0.00 | 80 | 1011.5 |